Tracking 27188 objects as of 1-Apr-2023
HD Live streaming from Space Station
objects crossing your sky now

STARLINK-5708

Track STARLINK-5708 now!
10-day predictions
STARLINK-5708 is classified as:


NORAD ID: 55470
Int'l Code: 2023-015X
Perigee: 446.3 km
Apogee: 448.1 km
Inclination: 43.0 °
Period: 93.4 minutes
Semi major axis: 6818 km
RCS: Unknown
Launch date: February 2, 2023
Source: United States (US)
Launch site: AIR FORCE EASTERN TEST RANGE (AFETR)
Your satellite tracking list
Your tracking list is empty




NASA's NSSDC Master Catalog

Two Line Element Set (TLE):
1 55470U 23015X   23090.91667824 -.00935338  00000-0 -23349-1 0  9994
2 55470  43.0014  43.7736 0001332 260.4745  77.7697 15.42056277  9182
Source of the keplerian elements: AFSPC